This is the latest recevied weather packets stored in our database for station/object NorthRyde. If no packets are shown the sender has not sent any weather packets the latest 10 day(s).
| Time | Temp. | Humidity | Pressure | Rain* | Wind** | Luminosity | Snow |
|---|---|---|---|---|---|---|---|
| 1777606044 | 23.33° C | 65% | 1028.3 hPa | 0 mm | - | 652 W/m² | - |
| 1777606025 | 23.33° C | 65% | 1028.3 hPa | 0 mm | - | 652 W/m² | - |
| 1777605819 | 23.33° C | 65% | 1028.4 hPa | 0 mm | - | 257 W/m² | - |
| 1777605765 | 23.33° C | 64% | 1028.4 hPa | 0 mm | - | 257 W/m² | - |
| 1777605733 | 23.33° C | 65% | 1028.4 hPa | 0 mm | - | 258 W/m² | - |
| 1777605713 | 23.33° C | 64% | 1028.4 hPa | 0 mm | - | 257 W/m² | - |
| 1777605694 | 23.33° C | 65% | 1028.4 hPa | 0 mm | - | 264 W/m² | - |
| 1777605519 | 23.33° C | 65% | 1028.5 hPa | 0 mm | - | 269 W/m² | - |
| 1777605464 | 23.33° C | 65% | 1028.5 hPa | 0 mm | - | 272 W/m² | - |
| 1777605399 | 23.33° C | 65% | 1028.5 hPa | 0 mm | - | 329 W/m² | - |
| 1777605337 | 23.33° C | 65% | 1028.7 hPa | 0 mm | - | 719 W/m² | - |
| 1777605277 | 23.33° C | 66% | 1028.7 hPa | 0 mm | - | 719 W/m² | - |
| 1777605218 | 23.33° C | 65% | 1028.7 hPa | 0 mm | - | 719 W/m² | - |
| 1777605159 | 22.78° C | 66% | 1028.8 hPa | 0 mm | - | 441 W/m² | - |
| 1777605097 | 22.78° C | 65% | 1028.8 hPa | 0 mm | - | 441 W/m² | - |
| 1777605036 | 22.78° C | 65% | 1028.8 hPa | 0 mm | - | 302 W/m² | - |
| 1777604980 | 23.33° C | 65% | 1028.8 hPa | 0 mm | - | 301 W/m² | - |
| 1777604919 | 23.33° C | 65% | 1028.8 hPa | 0 mm | - | 308 W/m² | - |
| 1777604858 | 23.33° C | 65% | 1028.8 hPa | 0 mm | - | 311 W/m² | - |
| 1777604799 | 23.33° C | 65% | 1028.8 hPa | 0 mm | - | 316 W/m² | - |
| 1777604739 | 23.33° C | 65% | 1028.8 hPa | 0 mm | - | 325 W/m² | - |
| 1777604679 | 23.33° C | 65% | 1028.7 hPa | 0 mm | - | 327 W/m² | - |
| 1777604614 | 23.33° C | 65% | 1028.9 hPa | 0 mm | - | 325 W/m² | - |
| 1777604550 | 23.33° C | 65% | 1028.8 hPa | 0 mm | - | 330 W/m² | - |
| 1777604484 | 23.33° C | 66% | 1028.9 hPa | 0 mm | - | 338 W/m² | - |
* Rain latest hour (hover to see other rain measurements)
** Current wind speed in m/s (hover to see current wind gust speed)